PERPET Weather Reports


time (UTC)temp
C
wind
direction
speed
KPH
gust
KPH
rain 1hr
cm
rain 24hr
cm
rain mn
cm
humidity
%
barometer
mb
20260506091756 10 260 0.0 8.0 0.00 0.05 0.00 1018.8
20260506091256 10 274 0.0 9.7 0.00 0.05 0.00 1018.8
20260506090756 10 289 0.0 9.7 0.00 0.05 0.00 1018.7
20260506090256 10 264 6.4 9.7 0.00 0.05 0.00 1018.8
20260506085757 10 280 0.0 9.7 0.00 0.05 0.00 1018.8
20260506085306 10 266 3.2 9.7 0.00 0.05 0.00 1018.7
20260506085256 10 266 3.2 9.7 0.00 0.05 0.00 1018.7
20260506084256 10 0 0.0 0.0 0.00 0.05 0.00 1018.7
20260506083756 10 197 0.0 11.3 0.00 0.05 0.00 1018.7
20260506082756 10 228 4.8 11.3 0.00 0.05 0.00 1018.6
20260506082256 10 0 0.0 6.4 0.00 0.05 0.00 1018.5
20260506081256 10 243 4.8 6.4 0.00 0.05 0.00 1018.4
20260506080756 10 263 0.0 6.4 0.00 0.08 0.00 1018.4
20260506080256 10 260 0.0 8.0 0.00 0.08 0.00 1018.4
20260506073256 10 0 0.0 0.0 0.00 0.08 0.00 1018.1
20260506072756 10 0 0.0 0.0 0.00 0.08 0.00 1018.1
20260506072256 10 0 0.0 0.0 0.00 0.08 0.00 1018.0
20260506071755 10 0 0.0 0.0 0.00 0.08 0.00 1017.8
20260506071255 10 0 0.0 0.0 0.00 0.08 0.00 1017.8
20260506070756 10 0 0.0 0.0 0.00 0.08 0.00 1017.8
20260506070255 10 0 0.0 0.0 0.00 0.08 0.08 1017.7
20260506062257 10 0 0.0 0.0 0.00 0.08 0.08 1017.7
20260506061755 10 0 0.0 0.0 0.00 0.08 0.08 1017.7
20260506061255 10 0 0.0 0.0 0.00 0.08 0.08 1017.7
20260506060755 10 0 0.0 0.0 0.00 0.08 0.08 1017.7
20260506060255 10 0 0.0 0.0 0.00 0.08 0.08 1017.7
20260506051255 11 0 0.0 0.0 0.00 0.08 0.08 1017.5
20260506050755 10 0 0.0 0.0 0.00 0.08 0.08 1017.5
20260506050255 10 0 0.0 0.0 0.00 0.08 0.08 1017.5
20260506044756 10 0 0.0 3.2 0.00 0.08 0.08 1017.3
20260506044255 10 0 0.0 3.2 0.00 0.08 0.08 1017.3
20260506043755 10 25 0.0 3.2 0.00 0.08 0.08 1017.3
20260506043256 10 0 0.0 0.0 0.00 0.08 0.08 1017.2
20260506042755 10 0 0.0 3.2 0.00 0.08 0.08 1017.2
20260506042256 10 25 0.0 3.2 0.00 0.08 0.08 1017.1
20260506041755 10 82 0.0 3.2 0.00 0.08 0.08 1017.1
20260506041255 10 0 0.0 0.0 0.00 0.08 0.08 1017.0
20260506040756 10 0 0.0 0.0 0.00 0.08 0.08 1016.9
20260506040255 10 0 0.0 0.0 0.00 0.08 0.08 1016.8
20260506035755 10 0 0.0 4.8 0.00 0.08 0.08 1016.9
20260506035257 10 82 0.0 4.8 0.00 0.08 0.08 1016.8
20260506035255 10 82 0.0 4.8 0.00 0.08 0.08 1016.8
20260506034755 10 357 0.0 4.8 0.00 0.08 0.08 1016.7
20260506034255 10 36 0.0 3.2 0.00 0.08 0.08 1016.7
20260506033755 10 0 0.0 3.2 0.00 0.08 0.08 1016.6
20260506032755 11 0 0.0 1.6 0.00 0.08 0.08 1016.6
20260506032255 10 357 0.0 6.4 0.00 0.08 0.08 1016.4
20260506031755 10 357 0.0 6.4 0.00 0.08 0.08 1016.4
20260506031255 10 357 0.0 6.4 0.00 0.08 0.08 1016.4
20260506030826 10 333 0.0 4.8 0.00 0.08 0.08 1016.3
20260506030755 10 333 0.0 4.8 0.00 0.08 0.08 1016.3
20260506030255 10 336 0.0 9.7 0.00 0.08 0.08 1016.3
20260506025755 10 336 1.6 9.7 0.00 0.08 0.08 1016.3
20260506025255 10 14 0.0 9.7 0.00 0.08 0.08 1016.3
20260506024754 11 299 0.0 3.2 0.00 0.08 0.08 1016.3
20260506024254 11 313 0.0 8.0 0.00 0.08 0.08 1016.2
20260506023754 11 305 0.0 8.0 0.00 0.08 0.08 1016.2
20260506023254 11 323 0.0 8.0 0.00 0.08 0.08 1016.2
20260506022754 11 301 0.0 6.4 0.00 0.08 0.08 1016.2
20260506022255 11 261 0.0 6.4 0.00 0.08 0.08 1016.2
20260506021754 11 261 0.0 6.4 0.00 0.08 0.08 1016.1
20260506021254 11 201 0.0 6.4 0.00 0.08 0.08 1016.1
20260506020754 11 348 0.0 6.4 0.00 0.08 0.08 1016.2
20260506020254 11 280 0.0 11.3 0.00 0.08 0.08 1016.2
20260506015255 11 285 6.4 11.3 0.00 0.08 0.08 1016.2
20260506014754 11 275 0.0 9.7 0.00 0.08 0.08 1016.3
20260506014254 11 291 3.2 9.7 0.00 0.08 0.08 1016.2
20260506013754 11 334 0.0 4.8 0.00 0.08 0.08 1016.1
20260506013254 11 285 1.6 4.8 0.00 0.08 0.08 1016.2
20260506012754 11 0 0.0 3.2 0.00 0.08 0.08 1016.1
20260506012255 11 322 0.0 3.2 0.00 0.08 0.08 1016.1
20260506011754 11 322 0.0 3.2 0.00 0.08 0.08 1016.2
20260506011255 11 275 0.0 9.7 0.00 0.08 0.08 1016.2
20260506005754 11 299 0.0 8.0 0.00 0.08 0.08 1016.2
20260506005255 11 281 0.0 8.0 0.00 0.08 0.08 1016.2
20260506004754 11 266 0.0 6.4 0.00 0.08 0.08 1016.2
20260506004254 12 299 1.6 6.4 0.00 0.08 0.08 1016.2
20260506003254 12 292 0.0 9.7 0.00 0.08 0.08 1016.2
20260506002754 12 278 0.0 9.7 0.00 0.08 0.08 1016.2
20260506002255 12 282 3.2 9.7 0.00 0.08 0.08 1016.2
20260506001754 12 254 0.0 12.9 0.00 0.08 0.08 1016.2
20260506001254 11 256 3.2 12.9 0.00 0.08 0.08 1016.3
20260506000255 11 256 3.2 9.7 0.00 0.08 0.08 1016.3
20260505235754 11 301 0.0 11.3 0.00 0.08 0.08 1016.3
20260505235255 12 280 0.0 11.3 0.00 0.08 0.08 1016.3
20260505234754 12 299 0.0 11.3 0.00 0.08 0.08 1016.2
20260505234254 12 243 1.6 8.0 0.00 0.08 0.08 1016.2
20260505233754 12 309 1.6 8.0 0.00 0.08 0.08 1016.2
20260505233254 12 231 4.8 8.0 0.00 0.08 0.08 1016.2
20260505232754 12 273 0.0 8.0 0.00 0.08 0.08 1016.3
20260505231754 11 266 0.0 11.3 0.00 0.08 0.08 1016.3
20260505231254 11 270 4.8 11.3 0.00 0.08 0.08 1016.3
20260505230754 12 270 0.0 9.7 0.00 0.08 0.08 1016.3
20260505225754 12 284 0.0 16.1 0.00 0.08 0.08 1016.4
20260505225254 12 264 8.0 16.1 0.00 0.08 0.08 1016.4
20260505224754 12 270 0.0 14.5 0.00 0.08 0.08 1016.6
20260505224254 12 250 0.0 14.5 0.00 0.08 0.08 1016.4
20260505223754 12 252 0.0 14.5 0.00 0.08 0.08 1016.4
20260505222754 13 228 3.2 14.5 0.00 0.08 0.08 1016.4
20260505222254 12 208 0.0 14.5 0.00 0.08 0.08 1016.4
20260505221754 12 232 3.2 14.5 0.00 0.08 0.08 1016.6
20260505221254 12 236 6.4 14.5 0.00 0.08 0.08 1016.6
20260505220754 12 233 4.8 14.5 0.00 0.08 0.08 1016.7
20260505220254 12 259 1.6 14.5 0.00 0.08 0.08 1016.7
20260505215753 12 201 4.8 14.5 0.00 0.08 0.08 1016.8
20260505215254 12 231 9.7 14.5 0.00 0.08 0.08 1016.8
20260505214753 12 229 3.2 11.3 0.00 0.08 0.08 1016.8
20260505214253 12 226 6.4 14.5 0.00 0.08 0.08 1016.8
20260505213753 12 226 6.4 14.5 0.00 0.08 0.08 1016.9
20260505213253 12 243 8.0 14.5 0.00 0.08 0.08 1016.9
20260505212254 12 236 8.0 12.9 0.00 0.08 0.08 1016.9
20260505211753 12 236 4.8 12.9 0.00 0.08 0.08 1016.9
20260505211253 12 245 4.8 9.7 0.00 0.08 0.08 1016.8
20260505210753 12 253 6.4 14.5 0.00 0.08 0.08 1016.7
20260505205753 12 242 6.4 14.5 0.00 0.08 0.08 1016.7
20260505205254 11 236 9.7 14.5 0.00 0.08 0.08 1016.7
20260505204753 11 357 6.4 14.5 0.00 0.08 0.08 1016.8
20260505204253 11 0 0.0 0.0 0.00 0.08 0.08 1016.9
20260505203753 12 0 0.0 0.0 0.00 0.08 0.08 1016.9
20260505203253 12 0 0.0 0.0 0.00 0.08 0.08 1016.9
20260505202756 12 0 0.0 1.6 0.00 0.08 0.08 1017.0
20260505201753 12 0 0.0 1.6 0.00 0.08 0.08 1017.0
20260505201253 12 144 0.0 1.6 0.00 0.08 0.08 1017.0
20260505200753 12 254 8.0 14.5 0.00 0.08 0.08 1017.0
20260505200253 12 228 4.8 14.5 0.00 0.08 0.08 1017.0
20260505195753 12 210 4.8 14.5 0.00 0.08 0.08 1016.9
20260505195254 12 224 0.0 12.9 0.00 0.08 0.08 1016.8
20260505194253 12 191 6.4 12.9 0.00 0.08 0.08 1016.8
20260505193755 12 189 4.8 11.3 0.00 0.08 0.08 1016.8
20260505193753 12 189 4.8 11.3 0.00 0.08 0.08 1016.8
20260505193253 12 180 4.8 11.3 0.00 0.08 0.08 1016.8
20260505192753 12 180 3.2 11.3 0.00 0.08 0.08 1016.8
20260505192255 12 151 4.8 12.9 0.00 0.08 0.08 1016.8
20260505191753 12 166 1.6 12.9 0.00 0.08 0.08 1016.8
20260505191254 12 180 6.4 12.9 0.00 0.08 0.08 1016.8
20260505190253 11 208 3.2 11.3 0.00 0.08 0.08 1016.7
20260505185753 11 193 6.4 11.3 0.00 0.08 0.08 1016.8
20260505185254 11 179 8.0 11.3 0.00 0.08 0.08 1016.7
20260505184753 11 210 1.6 11.3 0.00 0.08 0.08 1016.7
20260505184253 11 215 6.4 11.3 0.00 0.08 0.08 1016.7
20260505183753 11 222 6.4 11.3 0.00 0.08 0.08 1016.7
20260505183253 11 210 4.8 8.0 0.00 0.08 0.08 1016.6
20260505182753 11 210 0.0 12.9 0.00 0.08 0.08 1016.4
20260505182253 11 219 4.8 12.9 0.00 0.08 0.08 1016.4
20260505181753 11 182 9.7 12.9 0.00 0.08 0.08 1016.6
20260505181253 11 211 0.0 3.2 0.00 0.08 0.08 1016.4
20260505180753 11 151 0.0 3.2 0.00 0.08 0.08 1016.4
20260505180253 12 0 0.0 6.4 0.00 0.08 0.08 1016.3
20260505175753 11 0 0.0 6.4 0.00 0.08 0.08 1016.4
20260505174753 11 0 0.0 3.2 0.00 0.08 0.08 1016.4
20260505174253 11 180 0.0 3.2 0.00 0.08 0.08 1016.3
20260505173753 11 0 0.0 0.0 0.00 0.08 0.08 1016.3
20260505173253 11 0 0.0 0.0 0.00 0.08 0.08 1016.3
20260505172753 11 0 0.0 0.0 0.00 0.08 0.08 1016.2
20260505171753 11 180 0.0 4.8 0.00 0.08 0.08 1016.1
20260505170253 11 0 0.0 0.0 0.00 0.08 0.08 1016.1
20260505165752 11 0 0.0 0.0 0.00 0.08 0.08 1016.0
20260505165253 11 162 0.0 9.7 0.00 0.08 0.08 1016.0
20260505164752 10 201 0.0 9.7 0.00 0.08 0.08 1016.1
20260505163752 10 151 0.0 8.0 0.00 0.08 0.08 1015.9
20260505163252 11 135 0.0 6.4 0.00 0.08 0.08 1015.9
20260505162752 11 0 0.0 0.0 0.00 0.08 0.08 1016.0
20260505162253 11 0 0.0 0.0 0.00 0.08 0.08 1015.9
20260505161752 11 0 0.0 0.0 0.00 0.08 0.08 1016.0
20260505161252 11 0 0.0 0.0 0.00 0.08 0.08 1016.0
20260505160752 10 0 0.0 0.0 0.03 0.08 0.08 1015.9
20260505160253 10 0 0.0 0.0 0.03 0.08 0.08 1015.9
20260505153253 10 0 0.0 0.0 0.03 0.08 0.08 1015.8
20260505152754 10 0 0.0 0.0 0.03 0.08 0.08 1015.8
20260505152254 10 0 0.0 0.0 0.03 0.08 0.08 1015.9
20260505151753 10 0 0.0 0.0 0.03 0.08 0.08 1015.8
20260505150752 10 0 0.0 0.0 0.00 0.10 0.05 1015.7
20260505150252 10 0 0.0 0.0 0.00 0.10 0.05 1015.8
20260505140253 10 0 0.0 8.0 0.00 0.10 0.05 1015.3
20260505130253 10 168 0.0 16.1 0.00 0.13 0.05 1014.8
20260505124752 10 197 1.6 14.5 0.00 0.13 0.05 1014.8
20260505123755 10 134 3.2 11.3 0.00 0.13 0.05 1014.7
20260505123752 10 134 3.2 11.3 0.00 0.13 0.05 1014.7
20260505123252 10 197 1.6 11.3 0.00 0.13 0.05 1014.7
20260505122752 10 201 0.0 9.7 0.00 0.13 0.05 1014.7
20260505122253 10 205 0.0 9.7 0.00 0.13 0.05 1014.7
20260505121751 10 189 1.6 9.7 0.00 0.13 0.05 1014.7
20260505121252 10 184 0.0 12.9 0.00 0.13 0.05 1014.7
20260505120751 10 128 0.0 12.9 0.00 0.15 0.05 1014.7
20260505115752 10 191 4.8 12.9 0.00 0.15 0.05 1014.6
20260505115252 10 180 0.0 14.5 0.00 0.15 0.05 1014.6
20260505114751 10 205 3.2 14.5 0.00 0.15 0.05 1014.6
20260505114251 10 232 3.2 14.5 0.00 0.15 0.05 1014.5
20260505113756 10 175 3.2 12.9 0.00 0.15 0.05 1014.6
20260505113751 10 175 3.2 12.9 0.00 0.15 0.05 1014.6
20260505112751 10 221 4.8 20.9 0.00 0.15 0.05 1014.6
20260505112252 10 204 1.6 20.9 0.00 0.15 0.05 1014.6
20260505111751 10 222 1.6 16.1 0.00 0.15 0.05 1014.5
20260505110752 10 228 6.4 22.5 0.03 0.20 0.05 1014.6
20260505110253 10 228 9.7 22.5 0.03 0.20 0.05 1014.6
20260505101752 10 172 1.6 17.7 0.03 0.20 0.05 1014.5
20260505101251 10 218 9.7 17.7 0.03 0.20 0.05 1014.3
20260505100751 10 210 0.0 9.7 0.00 0.20 0.05 1014.4
20260505095751 10 142 0.0 16.1 0.00 0.20 0.03 1014.5
20260505095254 10 124 0.0 16.1 0.00 0.20 0.03 1014.5
20260505094751 10 187 3.2 16.1 0.00 0.20 0.03 1014.4
20260505094251 10 165 8.0 20.9 0.00 0.20 0.03 1014.3
20260505093751 10 184 1.6 20.9 0.00 0.20 0.03 1014.2